Simultaneous Nadir Overpasses (SNOs) Predictions

Prediction of SNOs between NOAA-15 and METOP-C Satellite Orbit:

Table of predicted SNOs for the next 14.0 days since TLE Epoch: 8/23/2019
Index Date (NOAA-15) Time (NOAA-15) Lat,Lon (NOAA-15) SZA (NOAA-15 ) Date (METOP-C) Time (METOP-C) Lat,Lon (METOP-C) SZA (METOP-C ) Distance(km) Time Diff (sec)
1 08/23/2019 22:54:09 80.84,-129.98 71.04 08/23/2019 22:53:26 80.84,-129.89 71.03 1.63 43
2 08/23/2019 23:44:43 -80.85, 37.20 108.96 08/23/2019 23:44:07 -80.83, 37.24 108.99 2.02 36
3 08/24/2019 00:35:12 80.85,-155.36 71.06 08/24/2019 00:34:48 80.83,-155.38 71.04 1.27 24
4 08/24/2019 01:25:45 -80.84, 12.18 108.93 08/24/2019 01:25:28 -80.84, 12.10 108.94 1.61 17
5 08/24/2019 02:16:14 80.83, 179.62 71.09 08/24/2019 02:16:09 80.85, 179.49 71.09 2.76 5
6 08/24/2019 03:06:48 -80.84, -13.19 108.91 08/24/2019 03:06:49 -80.85, -13.03 108.88 3.10 1
7 08/24/2019 03:57:17 80.84, 154.25 71.11 08/24/2019 03:57:30 80.86, 154.36 71.14 2.77 13
8 08/24/2019 04:47:51 -80.85, -38.56 108.89 08/24/2019 04:48:11 -80.85, -38.52 108.88 0.81 20
9 08/24/2019 05:38:20 80.85, 128.87 71.13 08/24/2019 05:38:52 80.85, 128.87 71.15 0.40 32
10 08/24/2019 06:28:54 -80.85, -63.93 108.87 08/24/2019 06:29:33 -80.84, -64.00 108.87 2.11 39
11 08/24/2019 07:19:23 80.85, 103.49 71.15 08/24/2019 07:20:14 80.84, 103.38 71.15 2.28 51
12 08/24/2019 08:09:57 -80.86, -89.31 108.85 08/24/2019 08:10:54 -80.85, -89.13 108.82 3.21 57
13 08/24/2019 09:00:26 80.86, 78.11 71.17 08/24/2019 09:01:35 80.85, 78.25 71.20 2.44 69




NCC Satellite Simultaneous Nadir Overpasses (SNOs) Prediction Service
